FO-29
1 24278U 96046B 13045.44509092 .00000009 00000-0 42283-4 0 481
2 24278 098.5747 120.3455 0351056 122.0920 241.4810 13.52996700814714
SO-33
1 25509U 98061B 13044.40852670 .00000120 00000-0 11150-4 0 4326
2 25509 031.4347 048.3736 0351715 154.4146 353.9143 14.28962960747174
RS-22
1 27939U 03042A 13045.12197962 .00000351 00000-0 74907-4 0 1621
2 27939 097.7983 239.3916 0012573 215.0164 145.0199 14.64319257501282
VO-52
1 28650U 05017B 13045.84345684 .00001194 00000-0 15025-3 0 3444
2 28650 097.5758 070.6988 0025492 326.1382 033.8180 14.83570031420943
HO-68
1 36122U 09072B 13045.83057529 -.00000044 00000-0 00000 0 0 2849
2 36122 100.3251 105.8963 0007162 275.2287 084.8009 13.16301849152316
UO-11
1 14781U 84021B 13044.58782369 .00000326 00000-0 49071-4 0 1017
2 14781 097.9193 107.5823 0007932 337.3899 022.6963 14.80752007555647
AO-16
1 20439U 90005D 13045.55109192 .00000107 00000-0 55541-4 0 6750
2 20439 098.4603 348.5006 0011547 156.8788 319.2307 14.32138546204689
LO-19
1 20442U 90005G 13045.87097205 .00000077 00000-0 44064-4 0 6080
2 20442 098.4286 350.9944 0012679 147.6589 245.8357 14.32352058204924
AO-27
1 22825U 93061C 13045.44890972 .00000086 00000-0 50712-4 0 3137
2 22825 098.6060 350.8555 0007245 290.2257 182.0863 14.29533283 11095
IO-26
1 22826U 93061D 13045.87732510 .00000083 00000-0 49524-4 0 704
2 22826 098.6002 351.5917 0007785 281.3012 111.8139 14.29814235 11287
GO-32
1 25397U 98043D 13044.66506822 .00000113 00000-0 68296-4 0 9986
2 25397 098.3967 017.8979 0000625 346.2003 013.9143 14.23322042758376
NO-44
1 26931U 01043C 13045.69243941 .00000055 00000-0 53319-4 0 2594
2 26931 067.0506 215.2804 0005098 275.6111 084.4391 14.29887370593919
SO-50
1 27607U 02058C 13045.13985620 .00000270 00000-0 62443-4 0 9929
2 27607 064.5576 278.6958 0061959 197.2545 162.6454 14.72761591545594
CO-55
1 27844U 03031E 13045.06157587 .00000172 00000-0 99222-4 0 5796
2 27844 098.7036 055.9206 0008936 240.2402 152.7707 14.21158441499245
CO-57
1 27848U 03031J 13045.55361748 .00000131 00000-0 80792-4 0 5270
2 27848 098.7122 055.8542 0008798 244.8150 261.3419 14.20892258499240
AO-51
1 28375U 04025K 13045.48247090 .00000128 00000-0 50955-4 0 4863
2 28375 098.1827 005.9693 0084521 027.6945 332.8716 14.41066479453663
CP3
1 31129U 07012N 13044.95741190 .00000495 00000-0 12101-3 0 3905
2 31129 097.8890 044.6117 0101618 090.8750 270.4090 14.53456740309090
CO-65
1 32785U 08021C 13045.78298456 .00000767 00000-0 99303-4 0 5521
2 32785 097.7680 106.7369 0013752 354.0287 127.4294 14.83583224259727
PRISM
1 33493U 09002B 13045.70129966 .00002064 00000-0 24662-3 0 5357
2 33493 098.1993 198.7772 0017649 228.8088 131.1601 14.85260550219738
SOHLA-1
1 33496U 09002E 13045.49343696 .00000282 00000-0 55156-4 0 9698
2 33496 098.1210 161.9461 0006109 003.1336 058.2568 14.70186648217849
SO-67
1 35870U 09049F 13045.78559830 .00003147 00000-0 12543-3 0 7938
2 35870 097.2057 078.9299 0003435 056.1913 031.8513 15.25911555189580
TISAT-1
1 36799U 10035E 13045.79828958 .00001206 00000-0 15541-3 0 8078
2 36799 098.0416 129.7817 0015842 104.9710 255.3262 14.82851940140430
STUDSAT
1 36801U 10035G 13045.34927044 .00003763 00000-0 42689-3 0 5877
2 36801 098.0557 131.4591 0012876 089.0891 271.1798 14.86903249140474
FO-69
1 37227U 0 13045.33495598 .00000360 00000-0 58433-4 0 00638
2 37227 071.9720 137.5012 0018430 232.1163 127.8338 14.77371033010764
FO-70
1 37380U 0 13045.44967663 .00000328 00000-0 54238-4 0 00663
2 37380 071.9760 138.1184 0018858 229.0458 130.9040 14.77112726010858
ALMASAT-1
1 38078U 12006B 13045.69689672 .00014609 00000-0 37345-3 0 43
2 38078 069.4842 123.9282 0721644 302.9055 050.4650 14.18938415 51837
XATCOBEO
1 38082U 12006F 13045.62641471 .00045859 34088-5 97455-3 0 9222
2 38082 069.4845 110.5331 0641416 295.5047 058.1150 14.39935857 52198
NOAA-10
1 16969U 86073A 13045.11818765 .00000034 00000-0 31567-4 0 2441
2 16969 098.5588 075.5653 0011476 242.4860 185.6254 14.27614294374388
NOAA-11
1 19531U 88089A 13045.48797667 -.00000053 00000-0 -50846-5 0 2451
2 19531 098.7165 131.3887 0010396 248.7981 183.5703 14.15002567258773
NOAA-12
1 21263U 91032A 13045.55164235 .00000036 00000-0 33859-4 0 7217
2 21263 098.7111 071.8419 0013119 214.4399 145.5931 14.25546758131088
MET-3/5
1 21655U 91056A 13045.48636924 -.00000226 00000-0 -61900-3 0 6207
2 21655 082.5605 340.9905 0014505 078.3842 281.8907 13.17046014 33787
MET-2/21
1 22782U 93055A 13045.06481541 .00000092 00000-0 69404-4 0 6642
2 22782 082.5494 200.5918 0022678 191.6023 306.0745 13.83698402982612
OKEAN-4
1 23317U 94066A 13045.56303599 .00000748 00000-0 86227-4 0 1398
2 23317 082.5417 164.5323 0019640 272.2498 087.6469 14.84247081990752
NOAA-14
1 23455U 94089A 13045.49378626 .00000007 00000-0 26874-4 0 2033
2 23455 098.8120 131.7648 0009626 352.4872 007.6159 14.13892659935039
NOAA-15
1 25338U 98030A 13045.48743330 .00000174 00000-0 92883-4 0 6180
2 25338 098.7139 036.4171 0011389 121.9465 238.2825 14.25178247767362
RESURS
1 25394U 98043A 13045.91473670 .00000032 00000-0 31762-4 0 3067
2 25394 098.3489 027.7018 0000721 189.1726 223.4843 14.24320068758955
FENGYUN1
1 25730U 99025A 13045.46471381 .00001957 00000-0 11272-2 0 8074
2 25730 098.8682 006.5788 0024728 032.7763 114.6430 14.10172622708746
OKEAN-0
1 25860U 99039A 13045.57457323 .00000374 00000-0 63778-4 0 8684
2 25860 097.9747 009.7908 0001689 128.6893 009.2417 14.74477468730285
NOAA-16
1 26536U 00055A 13045.45738014 .00000192 00000-0 12771-3 0 968
2 26536 099.0588 096.9098 0011209 120.1380 240.0891 14.12839907639244
NOAA-17
1 27453U 02032A 13045.28211420 .00000142 00000-0 78522-4 0 234
2 27453 098.3180 065.8445 0012030 161.8892 198.2715 14.24539918553221
NOAA-18
1 28654U 05018A 13045.31640698 .00000383 00000-0 23526-3 0 5079
2 28654 099.0822 011.8656 0014212 191.1443 168.9430 14.11771640398729
NOAA-19
1 33591U 09005A 13045.37878797 .00000350 00000-0 21719-3 0 6925
2 33591 098.8912 348.4847 0014805 058.4496 301.8111 14.11459432207178
HUBBLE
1 20580U 90037B 13045.90678200 .00001309 00000-0 81923-4 0 1755
2 20580 028.4704 354.2445 0003589 131.6589 228.4323 15.03284709 51275
ISS
1 25544U 98067A 13045.82393914 .00008535 00000-0 14390-3 0 2200
2 25544 051.6493 356.1211 0012147 274.1187 124.7762 15.52493589815705
CO-58
1 28895U 05043F 13045.15045026 .00000258 00000-0 61508-4 0 4040
2 28895 097.8838 266.3780 0018622 108.3190 252.0026 14.60962005388986
FALCON
1 30776U 07006E 13045.56079534 .00003197 00000-0 19762-3 0 5509
2 30776 035.4301 234.1867 0002204 310.6799 090.5647 15.09558679326877
MAST
1 31126U 07012K 13045.13290355 .00000358 00000-0 89285-4 0 6836
2 31126 097.8761 048.1167 0094464 076.5283 284.6420 14.54430789309438
CAPE1
1 31130U 07012P 13045.43320773 .00000320 00000-0 82035-4 0 6950
2 31130 097.8898 044.7195 0102078 090.3302 270.9622 14.53297813308950
COMPASS
1 32787U 08021E 13045.74615932 .00001404 00000-0 17062-3 0 5442
2 32787 097.7685 107.4373 0014135 351.1689 123.9969 14.84983583259797
AAUSAT2
1 32788U 08021F 13045.17453575 .00001383 00000-0 16655-3 0 5345
2 32788 097.7691 107.4143 0013683 352.8253 068.6901 14.85397256259745
DO-64
1 32789U 08021G 13045.74601624 .00002440 00000-0 27412-3 0 5583
2 32789 097.7830 111.0727 0013223 345.3955 161.7586 14.87600276259910
CO-66
1 32791U 08021J 13044.76794985 .00001106 00000-0 13827-3 0 5303
2 32791 097.7690 105.9947 0014683 354.9877 125.3634 14.84218389259561
